{"data":{"norad_id":40020,"epoch":"2026-09-19T14:40:59.215872Z","epoch_age_seconds":91168,"freshness":"FRESH","line1":"1 40020U 14033L   26262.61179648  .00000416  00000+0  70281-4 0  9999","line2":"2 40020  97.9862  29.8689 0077788 335.5571  24.1956 14.72817661656116","mean_motion":14.72817661,"eccentricity":0.0077788,"inclination_deg":97.9862,"raan_deg":29.8689,"arg_perigee_deg":335.5571,"mean_anomaly_deg":24.1956,"bstar":7.0281e-5,"rev_number":65611,"period_min":97.771777059102,"perigee_km":597.40066111135,"apogee_km":706.77407977697,"semimajor_km":7030.2243704442,"source":"CELESTRAK","updated_at":"2026-09-20T09:00:48.024248Z"}}